Temp_Advection
nan nan nan nan nan nan nan nan nan nan nan nan nan nan nan nan nan nan nan nan nan nan nan nan nan nan nan nan nan nan nan nan nan nan nan nan nan nan nan nan nan nan nan nan nan nan nan nan nan
nan -0 0 -0 -0 -0 -0 -0 -0 -1 -1 -0 0 -0 -1 -0 -0 -0 -0 0 0 -0 -0 -0 0 0 0 0 0 0 0 0 0 -0 -0 -0 -0 0 0 -0 0 0 -0 -0 -0 -0 -0 -0 nan
nan -0 0 -0 0 0 -0 -0 -0 -1 -0 -0 -0 0 -0 -0 0 0 -0 0 0 1 0 -0 0 0 0 0 0 0 0 0 0 0 -0 -0 0 -0 -0 -0 -0 -0 -0 -0 -0 -0 -0 -0 nan
nan 0 0 -0 -0 -0 0 -0 -0 -0 0 -0 -1 -0 0 0 0 -0 -0 0 0 0 -0 -0 0 0 0 0 0 0 0 0 0 0 0 0 0 -0 -0 -0 -0 -0 -0 0 0 -0 -0 -0 nan
nan 0 -0 -0 -0 -0 0 0 0 -0 0 -0 0 -0 0 0 0 -0 -0 0 0 -0 0 0 0 0 0 0 0 0 0 0 0 0 0 0 0 -0 -0 -0 0 0 0 -0 -0 -0 -0 -0 nan
nan 0 0 -0 -0 -0 -0 0 -0 -0 -0 0 -0 -0 -0 0 -0 0 -0 0 0 -0 0 0 0 0 0 0 0 0 0 0 -0 -0 0 0 -0 -0 -0 0 -0 -0 0 0 -0 -0 -0 -0 nan
nan 0 -0 0 0 0 -0 -0 0 0 0 0 -0 -0 -0 0 0 0 0 0 0 0 0 0 0 0 0 0 0 -0 0 0 0 0 0 0 0 -0 -0 -0 -0 -0 -0 -0 -0 -0 -0 -0 nan
nan -0 0 -0 0 -0 -0 -0 -0 1 0 0 -0 -0 -0 -0 0 0 0 0 0 0 0 -0 0 0 0 -0 0 0 0 0 0 0 0 0 0 0 0 -0 -0 -0 -0 -0 -0 -0 -0 -0 nan
nan -0 -0 -0 0 0 0 -0 -0 -0 -0 0 0 -0 -0 -1 -0 -0 0 0 -0 -0 -0 -0 -0 -0 -0 -0 -0 -0 -0 0 0 0 0 0 0 0 0 0 0 0 -0 -0 -0 -0 -0 -0 nan
nan -0 -0 -0 0 0 0 0 -0 -0 -0 -0 0 0 0 0 0 -0 -0 -1 -1 -1 -0 -0 -0 -0 -0 0 0 0 0 0 0 0 0 0 0 0 0 0 0 -0 -0 -0 -0 0 0 -0 nan
nan -0 0 -0 0 0 0 -0 0 0 -0 -0 -1 -1 -0 0 -0 -1 -1 -1 -1 -0 -0 -0 -0 -0 -0 -0 0 0 0 0 0 0 0 0 0 0 0 0 -0 -0 -0 -0 -0 0 0 -0 nan
nan 0 -0 -0 0 0 -0 -0 0 0 0 -0 -1 -1 -1 -1 -1 -1 -1 -0 -0 -0 -0 0 0 0 -0 -0 -0 -0 0 0 0 0 0 0 0 0 0 -0 -0 -0 -0 -0 -0 -0 -0 -0 nan
nan 0 -0 0 0 0 0 -0 -0 0 0 -0 -0 -0 -0 -1 -0 0 0 0 -0 0 0 0 0 0 0 0 0 -0 -0 -0 0 0 0 0 0 -0 0 -0 -0 -0 -0 -0 -0 -0 -0 -0 nan
nan -0 -0 0 1 0 -0 0 0 -1 1 1 1 1 0 1 0 0 0 0 0 -0 -0 0 0 0 0 0 0 -0 0 0 0 0 0 0 -0 -0 0 0 -0 -0 -0 0 -0 -0 -0 -0 nan
nan -0 -0 0 0 0 0 -0 -1 -0 1 1 1 1 1 1 1 1 0 0 0 0 0 0 0 0 0 0 0 0 0 0 0 0 0 0 -0 -0 0 0 0 0 0 -0 -0 -0 -1 -1 nan
nan 0 0 0 -0 0 0 0 -0 0 0 0 0 0 0 0 0 0 0 0 0 0 0 0 0 0 -0 0 -0 -1 -0 1 0 -0 0 0 0 -0 -0 -0 -0 -0 -0 -0 -0 -0 -0 -0 nan
nan 0 0 -0 -0 0 -0 -0 -0 -0 0 0 1 0 0 -0 -0 -0 -0 -0 -0 0 0 0 0 -0 -0 -0 0 0 0 -0 0 0 0 0 0 0 0 -0 -0 -0 -0 -0 -0 -0 -0 -0 nan
nan 0 0 -0 -0 -1 -1 -0 -0 -0 0 0 1 1 1 0 -0 0 0 0 0 1 1 0 -0 -0 0 0 0 0 0 0 0 0 0 0 0 0 -0 -0 -0 -0 0 -0 -0 -0 -0 -0 nan
nan 0 -0 -0 0 -0 -0 -0 -0 -0 -0 0 0 1 1 1 0 0 0 0 0 0 0 0 0 0 0 -0 -0 -0 -0 -0 -0 0 0 -0 -0 0 0 0 0 0 -0 -0 -0 -0 -0 -0 nan
nan -0 -0 -0 0 0 -0 -0 -0 -0 -0 0 0 1 1 1 1 1 0 0 0 -0 -0 0 0 -0 -0 -0 0 -0 -0 0 -0 -0 -0 0 0 -0 0 0 0 0 -0 -1 -0 -0 -0 -1 nan
nan -0 0 0 -0 0 -0 -0 -0 -0 -0 -0 -0 0 1 1 0 1 1 1 0 0 -0 -0 -0 -0 0 0 0 0 -0 -0 -0 -0 -0 -0 -0 0 0 -0 -0 -0 -0 -0 -0 -0 -0 -0 nan
nan -0 -0 0 0 -0 -0 -0 -0 -0 -0 -0 -0 -0 0 1 0 0 0 0 0 0 0 0 0 -0 0 0 0 0 -0 -0 -0 -0 -0 -0 -0 -0 -0 -0 -0 -0 -0 -0 0 -0 -0 0 nan
nan -0 0 -0 0 0 0 -0 -0 -0 -0 -0 -0 -0 0 0 -0 -0 0 0 0 -0 0 0 0 0 0 0 0 0 0 0 0 -0 -0 -0 -0 -0 -0 -0 -0 -0 0 0 0 0 -0 -1 nan
nan 0 -0 0 0 0 0 0 -0 -0 -0 -0 -0 -0 -0 0 0 -0 -0 0 0 0 0 0 0 0 0 0 0 -0 -0 -0 0 0 -0 -0 -0 0 0 0 -0 -0 0 0 0 0 0 -0 nan
nan 0 -0 -0 0 0 -0 -0 -0 0 0 -0 -0 -1 -0 0 0 0 0 0 0 0 0 0 0 0 0 -0 -0 -0 -0 -0 -0 -0 -0 -0 -0 -0 0 0 0 0 1 1 0 -0 -0 -0 nan
nan 0 0 0 0 0 -0 -0 0 0 0 1 1 0 0 0 0 0 0 0 0 0 0 0 0 0 -0 -0 -0 -0 -0 -0 -0 -0 -0 -0 -0 -0 -0 0 1 1 1 0 0 0 -0 0 nan
nan 0 -0 -1 -0 -0 -0 -0 0 0 0 0 0 0 0 0 0 0 1 1 1 1 0 0 -0 -0 -0 -0 -0 -0 -0 -0 -0 -0 -0 -0 -0 -0 -0 -0 1 1 0 0 0 0 0 0 nan
nan 0 0 -0 -0 -0 0 -0 0 0 -0 -0 -0 0 -0 0 0 1 1 1 0 0 0 -0 -0 -0 -0 -0 -0 -0 -0 -0 -0 -1 -1 -1 -1 -1 -0 0 0 0 -0 -0 0 0 0 0 nan
nan -0 -0 -0 0 0 -0 -0 0 0 1 1 1 0 0 1 1 1 1 0 0 0 0 -0 -0 -0 -0 -0 -0 -0 -0 -0 -1 -1 -1 -1 -1 -0 -0 0 -0 -0 -0 0 0 0 0 0 nan
nan nan nan nan nan nan nan nan nan nan nan nan nan nan nan nan nan nan nan nan nan nan nan nan nan nan nan nan nan nan nan nan nan nan nan nan nan nan nan nan nan nan nan nan nan nan nan nan nan
Wind_Speed
5 3 4 4 2 1 1 4 2 7 5 8 9 12 14 15 5 3 16 19 21 22 23 21 21 21 20 17 15 14 12 11 11 11 10 10 9 8 9 10 10 10 10 9 9 10 10 11 11
6 5 6 2 2 3 1 2 9 12 19 14 15 11 12 6 11 3 21 21 22 22 23 23 20 20 18 16 14 12 10 11 11 10 10 10 9 9 11 11 10 9 8 8 8 9 9 10 11
6 7 2 2 2 4 1 6 18 23 13 10 7 5 7 4 9 11 14 21 24 23 23 22 21 18 17 14 12 10 10 11 10 10 9 9 9 10 11 11 9 8 7 7 8 9 10 11 12
9 5 2 2 4 3 4 14 20 17 8 5 17 4 10 8 8 20 17 22 22 21 22 20 19 18 15 13 11 10 11 11 10 9 10 9 10 11 11 10 8 9 10 11 13 14 14 14 15
9 3 2 2 3 1 3 18 12 6 8 8 4 10 10 15 19 16 21 24 21 20 20 20 18 15 14 12 10 11 11 11 10 9 9 9 10 11 10 10 10 11 14 15 16 16 17 17 17
3 2 1 3 1 2 3 14 16 12 14 5 4 8 6 18 12 17 21 21 21 21 20 18 15 14 12 12 11 11 11 11 9 11 9 10 11 11 11 11 11 12 14 15 16 16 16 16 17
3 2 3 3 4 4 4 14 13 11 10 6 14 3 7 13 17 21 21 20 19 18 18 17 14 13 12 11 11 10 11 10 11 11 10 11 11 11 11 11 11 11 12 12 14 14 14 15 15
2 2 4 3 9 6 4 11 15 12 3 20 14 6 7 22 19 21 23 21 19 16 16 16 14 12 11 10 10 9 10 11 11 11 10 11 11 11 10 9 9 9 9 9 10 10 11 14 18
4 1 4 6 8 7 10 5 9 7 13 6 6 8 14 27 25 25 23 21 19 16 14 12 11 10 10 10 8 8 10 10 10 10 10 9 9 8 8 6 7 6 6 8 9 10 9 13 16
4 2 6 3 10 13 19 13 9 7 8 3 8 11 31 27 25 25 24 22 20 16 14 12 11 10 9 8 8 8 10 10 10 9 9 8 6 6 5 4 4 4 6 9 11 11 11 13 16
4 3 4 5 8 9 15 6 6 18 5 5 14 29 28 25 23 23 22 20 17 15 13 10 9 8 8 6 6 7 8 8 6 8 7 5 4 3 3 2 2 4 5 7 9 10 11 15 19
3 5 2 7 6 10 8 13 6 6 1 2 16 28 29 26 24 21 19 18 15 14 12 11 10 9 8 8 7 6 7 7 5 4 5 4 3 3 2 2 4 5 6 9 10 11 14 19 21
4 3 2 2 11 17 12 8 7 3 6 12 20 27 26 24 21 18 16 14 14 13 13 12 13 12 11 8 6 5 3 4 3 3 5 5 5 4 5 6 7 9 11 13 15 17 21 23 22
6 7 8 8 12 8 9 5 5 6 12 19 22 25 25 24 21 19 16 15 14 13 14 13 12 11 10 6 2 2 4 9 9 11 11 10 11 10 8 9 10 12 15 18 19 22 25 24 21
8 7 6 8 4 4 9 5 5 8 13 19 18 20 21 21 22 20 17 16 14 15 14 13 13 12 9 5 6 8 15 14 13 14 16 14 16 12 10 13 16 17 18 20 24 25 25 24 22
4 4 4 2 2 4 1 3 7 8 9 11 15 18 19 16 18 17 16 16 15 15 16 15 14 14 10 4 13 18 15 17 20 21 14 7 6 10 10 14 15 18 21 22 24 23 21 20 20
7 3 3 4 11 2 7 1 11 5 11 11 12 13 14 12 12 13 11 13 12 16 17 18 19 15 12 12 18 17 15 8 7 7 2 3 5 10 14 18 19 18 22 25 22 21 21 21 21
4 4 2 5 4 11 11 5 9 9 9 11 12 13 14 12 9 10 12 10 11 17 17 15 12 9 13 10 8 7 2 2 6 7 6 10 13 14 19 18 17 20 19 18 19 20 22 23 24
5 3 6 3 3 7 8 8 9 8 10 9 10 13 14 13 11 10 10 9 9 9 9 7 7 8 3 4 4 4 5 8 11 8 11 13 16 18 21 18 18 18 17 18 18 21 24 27 28
5 6 4 5 4 6 8 11 8 9 5 5 11 14 17 19 17 15 15 17 14 14 11 12 13 10 8 7 3 6 5 2 6 11 14 16 17 19 19 18 17 18 22 25 28 28 26 23 25
4 7 4 5 7 8 7 5 4 6 8 10 12 16 19 24 27 26 24 24 25 23 20 17 14 12 9 8 5 1 4 6 10 13 15 16 18 17 17 18 21 25 28 28 24 20 17 16 21
4 4 11 11 2 3 3 3 1 2 5 7 10 13 19 25 27 27 28 29 28 24 21 19 18 14 10 5 2 4 6 8 11 13 14 15 16 18 20 23 27 27 25 20 19 18 17 18 14
4 6 7 3 4 3 2 2 3 5 7 9 11 10 17 23 26 27 27 26 26 24 20 17 12 8 5 4 4 5 6 7 8 9 11 15 19 21 25 27 27 24 21 18 17 15 15 18 20
10 6 6 3 2 0 1 2 5 10 14 13 12 12 18 24 25 25 24 25 23 20 17 14 10 9 6 4 4 6 7 9 12 15 18 20 23 26 27 28 25 24 23 21 19 18 21 20 21
5 4 2 1 1 3 1 2 5 15 12 18 21 20 23 24 24 22 22 21 20 18 15 12 9 5 2 3 7 9 11 13 16 20 23 25 28 29 28 24 22 20 19 15 14 13 12 16 13
2 4 4 5 4 2 1 5 3 3 15 22 24 21 23 24 23 20 18 18 18 18 15 12 7 2 3 6 9 9 11 16 20 24 26 27 27 27 25 22 18 17 15 15 22 15 16 12 13
3 2 2 6 2 1 2 3 6 1 10 15 18 21 22 23 22 19 17 18 19 17 13 7 1 5 3 5 8 13 18 23 26 28 29 29 27 25 21 16 14 17 15 24 15 11 10 13 15
1 6 3 2 4 3 2 5 5 6 14 12 16 20 21 21 21 20 21 20 17 13 10 5 2 4 7 8 13 18 22 26 28 29 29 29 27 22 16 13 12 15 24 17 8 8 10 14 17
3 2 5 4 1 3 2 4 4 8 13 16 22 20 23 23 24 25 22 18 14 11 6 3 9 8 7 11 16 19 23 26 26 28 27 25 21 15 12 12 15 19 21 11 10 9 12 15 19
1 3 4 3 4 1 0 5 1 6 10 12 12 19 21 24 26 23 19 16 13 8 3 5 6 8 10 13 17 19 22 22 26 27 26 23 20 13 10 13 19 22 17 8 11 11 13 19 20
Wind_Direction
216 232 230 212 213 324 157 182 144 122 77 64 84 85 83 47 344 12 149 153 157 162 159 160 166 166 164 164 165 160 154 142 132 125 120 116 111 97 91 89 90 87 82 75 62 51 40 30 24
217 191 195 176 222 170 236 339 106 109 124 94 68 74 64 71 41 81 160 153 166 164 161 162 168 167 166 170 166 157 145 136 126 121 113 110 101 96 95 97 95 89 78 64 50 40 29 22 15
203 167 223 157 148 167 150 151 118 120 136 154 111 68 110 97 70 194 183 165 171 169 164 164 170 170 172 170 161 148 145 135 132 118 118 119 105 104 105 101 94 83 66 49 40 32 26 21 15
169 166 54 243 201 223 149 148 127 121 73 78 162 142 116 96 196 190 187 175 172 168 164 165 173 173 170 163 155 155 143 142 131 129 129 118 114 113 108 101 90 72 62 59 57 54 48 43 34
173 153 172 253 229 220 199 161 181 117 72 246 207 147 129 174 187 191 172 164 168 169 162 169 174 169 163 157 161 154 149 144 139 131 131 123 121 119 112 108 92 86 76 66 60 56 52 43 33
152 122 156 231 283 162 160 160 114 114 196 184 85 112 126 158 187 170 164 166 171 163 164 165 168 166 161 163 164 157 153 148 139 141 137 130 128 124 120 109 102 93 84 74 70 66 60 50 36
138 132 215 174 120 108 118 134 95 192 180 185 140 80 131 162 168 162 160 169 163 160 161 161 164 167 168 169 163 160 159 154 149 146 145 140 137 130 121 118 110 105 100 84 73 68 61 53 41
182 159 173 222 139 76 118 108 143 224 209 142 146 156 161 163 156 157 163 163 162 161 165 165 168 173 168 169 169 165 162 155 153 150 149 142 136 132 125 120 112 108 98 81 68 59 47 35 23
182 176 187 188 121 108 78 38 148 134 135 131 161 172 169 156 164 165 164 163 163 162 165 168 174 175 172 170 171 162 158 152 158 153 154 145 135 130 127 124 118 103 76 48 38 31 24 18 11
171 190 216 217 127 195 165 187 148 128 146 125 129 152 157 162 166 169 172 172 171 167 165 174 180 177 172 176 166 163 154 152 157 156 149 137 135 130 129 121 98 72 38 28 22 12 4 359 352
182 213 210 248 167 161 148 111 160 146 190 197 154 148 162 162 168 175 177 173 167 166 157 157 158 157 159 161 157 144 138 136 149 161 147 143 139 155 142 114 25 23 22 4 359 348 343 336 331
204 231 224 340 98 113 125 135 107 125 77 178 165 163 165 170 175 177 178 175 162 151 147 144 131 130 137 136 128 128 124 126 114 145 184 188 182 193 213 270 302 321 332 325 321 315 314 319 321
178 229 89 80 124 126 132 110 138 79 102 151 157 166 172 175 176 178 182 176 166 155 149 145 145 138 133 133 141 140 173 208 191 205 239 258 258 248 252 272 290 299 300 302 302 303 312 318 318
145 116 104 103 115 132 119 91 111 11 147 164 166 176 178 183 180 183 190 184 175 165 164 159 151 148 141 144 157 345 340 275 270 279 280 276 273 268 268 275 285 290 294 292 302 310 318 319 315
124 82 67 34 63 80 91 47 34 359 173 163 163 175 182 188 189 195 196 197 185 181 179 171 167 161 155 130 65 94 332 315 286 262 268 284 275 278 286 289 289 288 296 314 321 323 320 316 309
79 62 104 22 70 38 87 164 4 13 155 131 160 178 183 180 195 204 208 214 208 199 191 188 181 182 172 149 332 282 311 285 302 295 293 314 331 313 291 293 304 310 314 319 323 321 316 312 309
24 122 123 96 18 100 38 48 342 26 146 108 134 157 181 180 193 207 213 222 222 217 207 197 193 188 190 308 284 262 286 342 42 18 4 314 309 306 313 314 311 316 317 317 315 310 308 307 306
152 137 133 116 19 56 77 54 6 37 120 119 131 137 149 168 170 192 210 210 205 205 208 210 209 250 274 269 257 239 110 12 319 311 299 308 308 311 316 313 307 305 301 303 305 307 310 311 311
120 106 105 65 149 77 76 66 32 47 84 111 132 141 139 145 154 163 176 173 177 176 189 221 236 236 143 120 96 144 230 269 284 285 303 310 308 306 309 298 291 289 292 298 306 313 311 309 311
94 126 99 89 112 93 99 62 54 46 59 121 138 135 136 135 137 136 137 134 130 124 136 154 139 124 109 101 157 231 237 248 301 297 291 292 294 297 294 289 293 303 314 315 314 314 313 316 322
68 103 165 132 105 96 116 69 43 51 87 108 114 124 127 130 129 126 125 128 131 134 134 128 120 121 140 142 154 256 320 297 297 294 295 298 298 301 302 303 311 317 317 314 315 317 321 330 329
87 108 127 122 84 138 323 170 132 120 119 126 129 130 134 134 133 136 138 135 129 128 131 133 136 150 165 176 241 296 306 301 294 295 302 305 302 303 306 307 315 317 312 309 307 310 316 325 330
118 133 118 97 102 151 68 121 148 171 195 184 174 157 152 147 143 142 139 139 140 141 147 150 152 163 180 210 245 282 293 294 300 315 319 304 303 303 307 309 311 311 303 296 298 308 327 328 323
143 94 54 56 70 258 161 222 192 194 199 187 185 177 162 155 152 150 151 153 151 151 162 161 169 190 208 246 279 316 325 317 317 316 312 309 305 305 307 306 308 303 296 289 290 296 308 309 316
76 98 92 180 202 229 335 204 259 206 187 183 184 184 174 169 169 166 163 163 161 163 172 177 189 195 179 331 346 348 338 330 330 328 324 319 315 311 304 296 294 283 274 273 300 304 307 323 322
109 165 164 197 197 202 130 229 236 212 202 186 186 182 181 183 183 176 176 180 181 183 182 177 175 186 345 347 341 335 340 344 344 342 337 333 326 320 312 296 279 253 254 285 315 296 316 315 319
159 168 113 106 24 212 228 272 267 166 188 182 173 180 185 188 189 191 188 182 173 167 166 164 80 348 344 356 351 351 349 345 346 345 341 336 333 330 326 311 260 254 277 303 315 308 313 312 307
127 135 120 45 155 249 251 271 242 202 195 192 184 187 190 194 195 191 181 171 164 162 154 113 43 13 354 346 349 348 348 346 342 341 340 338 335 333 326 293 273 296 314 313 312 304 311 307 305
142 127 66 102 66 175 290 256 214 229 203 201 203 195 194 192 187 183 177 170 167 159 137 30 350 328 331 338 341 345 345 343 341 339 338 336 332 332 324 297 298 297 313 298 293 303 316 311 308
112 141 139 126 188 71 233 273 163 269 249 221 202 199 196 193 186 181 175 172 169 169 125 0 321 319 327 333 335 336 338 338 340 341 339 336 330 311 283 282 304 302 297 277 305 303 313 318 314
Height
1530 1530 1531 1532 1535 1531 1533 1528 1525 1530 1534 1538 1539 1539 1545 1548 1548 1550 1549 1551 1554 1560 1562 1567 1569 1571 1572 1575 1576 1577 1579 1580 1581 1582 1582 1583 1584 1584 1583 1583 1584 1583 1582 1581 1580 1578 1577 1576 1575
1529 1530 1532 1531 1532 1533 1530 1523 1526 1530 1535 1539 1540 1544 1546 1552 1550 1551 1553 1553 1556 1559 1562 1566 1570 1572 1573 1575 1576 1578 1579 1580 1581 1582 1583 1584 1584 1584 1583 1584 1584 1584 1582 1582 1580 1578 1577 1576 1575
1527 1528 1532 1528 1533 1527 1529 1525 1525 1531 1535 1538 1543 1545 1544 1550 1552 1556 1554 1554 1556 1558 1562 1566 1569 1572 1574 1576 1577 1578 1580 1580 1581 1582 1583 1584 1584 1583 1583 1584 1585 1583 1583 1582 1581 1580 1579 1578 1577
1526 1528 1531 1528 1528 1526 1522 1525 1526 1528 1531 1535 1541 1542 1540 1547 1550 1551 1553 1556 1559 1559 1563 1566 1571 1573 1575 1576 1578 1579 1580 1582 1583 1583 1584 1585 1584 1584 1585 1586 1587 1585 1585 1583 1581 1579 1579 1579 1577
1525 1525 1528 1529 1527 1522 1522 1524 1528 1525 1528 1532 1532 1537 1541 1543 1549 1550 1553 1555 1558 1562 1564 1569 1573 1574 1576 1576 1579 1580 1582 1582 1583 1584 1585 1585 1584 1585 1585 1586 1586 1585 1584 1584 1582 1581 1579 1579 1578
1525 1526 1527 1527 1524 1520 1520 1521 1524 1527 1529 1533 1534 1533 1539 1543 1548 1549 1553 1556 1559 1560 1565 1568 1573 1576 1576 1577 1580 1581 1582 1582 1583 1584 1585 1584 1585 1585 1586 1587 1586 1588 1585 1586 1582 1581 1579 1578 1580
1523 1524 1524 1525 1522 1519 1519 1523 1526 1530 1528 1532 1533 1538 1540 1545 1547 1550 1555 1560 1560 1562 1566 1569 1573 1575 1577 1578 1579 1581 1582 1582 1583 1584 1585 1584 1585 1585 1587 1588 1587 1587 1586 1586 1584 1583 1581 1579 1581
1522 1523 1525 1522 1520 1521 1520 1522 1529 1536 1534 1530 1533 1537 1541 1544 1550 1552 1555 1559 1561 1563 1567 1571 1574 1576 1577 1579 1580 1582 1583 1583 1584 1585 1586 1585 1586 1586 1586 1588 1589 1587 1586 1586 1585 1583 1582 1580 1579
1521 1524 1521 1519 1515 1523 1519 1524 1527 1528 1529 1532 1532 1534 1536 1541 1548 1553 1556 1557 1561 1564 1568 1571 1574 1576 1577 1579 1581 1583 1584 1584 1587 1586 1587 1587 1588 1587 1587 1589 1587 1587 1587 1586 1584 1583 1582 1579 1578
1520 1521 1515 1512 1511 1516 1513 1517 1524 1526 1530 1532 1533 1535 1538 1543 1548 1553 1556 1557 1560 1565 1568 1572 1575 1577 1579 1582 1582 1584 1584 1586 1587 1588 1587 1589 1589 1588 1588 1588 1587 1586 1587 1585 1584 1583 1582 1579 1577
1517 1514 1511 1506 1511 1514 1512 1520 1524 1525 1529 1528 1529 1534 1540 1544 1549 1554 1556 1558 1562 1566 1571 1574 1577 1578 1580 1583 1585 1586 1587 1589 1590 1590 1590 1590 1589 1589 1587 1588 1588 1586 1585 1584 1583 1582 1580 1578 1576
1515 1512 1511 1509 1510 1513 1517 1520 1523 1525 1527 1527 1530 1533 1539 1545 1550 1554 1558 1561 1565 1569 1573 1576 1578 1580 1583 1585 1586 1588 1589 1590 1592 1591 1591 1591 1590 1589 1588 1587 1586 1585 1584 1583 1582 1581 1578 1577 1574
1513 1512 1512 1512 1513 1514 1518 1521 1523 1527 1527 1530 1534 1539 1543 1547 1551 1555 1560 1563 1567 1570 1575 1577 1578 1581 1582 1584 1586 1588 1589 1591 1590 1590 1591 1592 1591 1589 1587 1585 1584 1583 1583 1582 1580 1579 1577 1574 1571
1509 1512 1512 1515 1515 1517 1519 1524 1525 1531 1531 1533 1536 1539 1544 1549 1552 1558 1561 1565 1569 1573 1575 1576 1578 1581 1583 1584 1585 1587 1590 1588 1589 1590 1588 1588 1589 1587 1584 1584 1583 1582 1581 1580 1578 1576 1573 1570 1568
1509 1512 1513 1517 1518 1523 1521 1528 1534 1534 1533 1535 1540 1543 1547 1551 1554 1558 1562 1565 1569 1573 1574 1576 1578 1581 1583 1584 1585 1585 1585 1584 1584 1582 1585 1585 1587 1586 1584 1583 1582 1580 1579 1576 1573 1571 1569 1566 1564
1510 1515 1520 1520 1521 1524 1523 1534 1535 1534 1536 1538 1541 1544 1547 1551 1554 1558 1561 1565 1568 1572 1573 1576 1578 1580 1582 1584 1584 1585 1582 1580 1581 1581 1582 1582 1584 1583 1582 1580 1578 1577 1575 1572 1569 1567 1565 1561 1560
1516 1522 1523 1523 1524 1522 1525 1538 1538 1536 1537 1540 1542 1544 1547 1551 1554 1557 1560 1564 1567 1569 1572 1574 1577 1580 1583 1585 1581 1580 1579 1580 1582 1581 1581 1581 1581 1581 1579 1577 1574 1572 1570 1567 1564 1562 1559 1555 1554
1520 1523 1523 1524 1530 1529 1533 1543 1540 1538 1538 1540 1543 1546 1548 1550 1553 1555 1558 1562 1564 1566 1569 1574 1578 1580 1580 1579 1580 1581 1580 1581 1580 1580 1579 1579 1579 1577 1575 1572 1570 1568 1565 1562 1560 1558 1554 1551 1549
1513 1519 1523 1529 1532 1534 1544 1543 1543 1542 1540 1542 1543 1546 1548 1549 1552 1555 1558 1561 1563 1566 1570 1574 1577 1579 1579 1579 1579 1579 1580 1580 1580 1579 1579 1577 1576 1573 1571 1569 1567 1564 1561 1559 1557 1554 1551 1547 1544
1516 1523 1530 1533 1532 1532 1540 1545 1546 1545 1546 1546 1545 1547 1547 1548 1552 1555 1557 1559 1563 1567 1569 1572 1575 1576 1576 1577 1579 1579 1579 1579 1578 1577 1576 1574 1572 1570 1568 1566 1563 1561 1558 1556 1553 1550 1546 1542 1538
1520 1523 1531 1530 1532 1534 1535 1544 1547 1549 1549 1549 1549 1549 1549 1550 1552 1556 1558 1561 1563 1567 1570 1572 1574 1576 1578 1578 1579 1578 1577 1576 1576 1574 1573 1571 1569 1567 1564 1562 1561 1558 1555 1551 1547 1544 1541 1539 1535
1521 1522 1524 1531 1532 1535 1538 1543 1548 1549 1550 1551 1552 1553 1553 1554 1556 1558 1560 1562 1564 1568 1570 1572 1573 1576 1577 1577 1577 1576 1576 1575 1573 1572 1571 1569 1566 1564 1562 1559 1556 1552 1549 1545 1542 1540 1538 1535 1534
1523 1523 1525 1530 1533 1535 1539 1538 1546 1550 1550 1550 1552 1553 1554 1555 1556 1559 1561 1562 1564 1566 1570 1571 1572 1575 1575 1575 1575 1574 1573 1572 1571 1570 1568 1566 1563 1560 1556 1553 1550 1547 1544 1541 1537 1535 1534 1532 1532
1519 1525 1530 1535 1536 1542 1540 1539 1541 1544 1538 1545 1550 1552 1553 1555 1557 1559 1561 1563 1564 1566 1568 1568 1570 1572 1572 1572 1572 1571 1571 1571 1569 1567 1565 1562 1559 1555 1551 1547 1544 1541 1539 1537 1534 1532 1530 1528 1526
1520 1527 1541 1544 1546 1544 1545 1545 1527 1530 1535 1538 1544 1548 1550 1553 1556 1558 1559 1561 1563 1563 1566 1567 1568 1569 1570 1571 1572 1571 1570 1568 1567 1564 1561 1556 1551 1548 1544 1540 1538 1535 1534 1532 1530 1528 1526 1526 1522
1525 1525 1536 1551 1552 1540 1546 1539 1523 1530 1532 1535 1539 1544 1548 1552 1554 1557 1558 1560 1561 1562 1563 1565 1566 1567 1569 1569 1569 1569 1567 1565 1562 1559 1554 1550 1544 1540 1536 1533 1531 1530 1529 1529 1526 1526 1523 1522 1520
1526 1529 1533 1547 1562 1551 1541 1535 1525 1528 1530 1534 1538 1542 1546 1549 1552 1554 1556 1557 1558 1560 1563 1564 1565 1565 1567 1567 1566 1565 1563 1561 1557 1554 1550 1545 1540 1535 1531 1529 1527 1527 1527 1525 1524 1521 1521 1520 1518
1519 1528 1533 1540 1551 1552 1541 1541 1523 1527 1526 1531 1536 1538 1542 1546 1549 1552 1553 1556 1558 1560 1562 1562 1563 1564 1564 1563 1562 1561 1559 1557 1554 1550 1546 1541 1536 1532 1529 1527 1527 1526 1524 1521 1520 1518 1518 1516 1515
1525 1528 1539 1540 1549 1544 1548 1528 1523 1521 1523 1525 1528 1533 1538 1542 1545 1548 1551 1554 1557 1558 1559 1560 1562 1563 1561 1561 1560 1559 1556 1554 1550 1546 1542 1537 1532 1529 1527 1526 1524 1522 1520 1519 1517 1515 1514 1513 1511
1520 1524 1529 1536 1546 1559 1554 1528 1524 1524 1524 1525 1528 1531 1535 1539 1542 1546 1550 1552 1554 1556 1556 1558 1560 1560 1559 1558 1557 1555 1552 1549 1546 1541 1537 1533 1529 1526 1524 1522 1520 1518 1515 1514 1514 1512 1511 1509 1505